Location: Les Jeannots
(43.2262°N, 5.5774°E)
Time: 18:32:04
(UTC+00:00)

Spot 2 Rocket - Pass Details

Date: 05 July 2020
Orbit: 757 x 772 km, 98.6° (Epoch: 12 August)

Event Time Altitude Azimuth Distance (km) Brightness Sun altitude
Exits shadow 21:16:45 14° 192° (SSW) 2,050 5.3 -16.1°
Maximum altitude 21:20:54 44° 261° (W) 1,061 4.4 -16.5°
Drops below altitude 10° 21:25:47 10° 333° (NNW) 2,322 7.3 -17.0°
Sets 21:28:13 0° 340° (NNW) 3,255 8.3 -17.2°
